Showing default

FLOCK 4G 27, 62641

Orbit data source: Space-Track

FLOCK 4G 27, 62641 is a payload satellite owned by Planet (US) in SSO that was launched on Tue, 14 Jan 2025 UTC via an FALCON 9 launch vehicle from the Air Force Western Test Range (AFWTR). Payload-class satellites include a variety of spacecraft equipped with specific instruments for various scientific and technological missions. These include communications satellites like Starlink; space stations such as the ISS; scientific satellites like the Hubble; Earth observation satellites from companies like Planet Labs, Umbra, and HawkEye 360; GPS; miniature CubeSats for education and research; and military/defense satellites.

Loading next visibility...
Identifier
62641, 2025-009AJ
Orbit
SSO
Country
Flag of USUS
Related business
Manufacturer
Planet
Mission
Operational Commercial Imaging
Bus & Motor
CUBESAT 3U, Unknown motor
Mass
5.7 kg wet, 5.7 kg dry
Launch date (UTC)
2025-01-14 (2 years ago)
Launch vehicle
FALCON 9
Launch site
Air Force Western Test Range (AFWTR)
Object type
Payload
Rocket body
Debris
Shape & HBR
Box + 2 Pan, 1.0 m
Radar Cross Section
0.072 m², Medium (>0.1 m² and < 1m²)

Expand to show TLE details & history
Last TLE update: 8 hours ago

TLE from 8 hours ago
0 FLOCK 4G 27
1 62641U 25009AJ  26254.47096532  .00008036  00000-0  27241-3 0  9996
2 62641  97.3894 335.4293 0002416  41.8186 318.3239 15.30811271 92099
Epoch: 2026-09-11T11:18Z
TLE epoch observation values (Epoch: 2026-09-11T11:18:11.403Z)
Latitude
-0.00006°
Longitude
175.38795°
Altitude
475.26 km
Speed
7.629 km/s
True Right ascension
22h 21m 43s
True Declination
0° 00' 00"
Sunlit
Object was in full shadow at epoch
Visualization orbit readout
Latitude
Unknown
Longitude
Unknown
Altitude
Unknown
Speed
Unknown
Apparent Right ascension
Unknown
Apparent Declination
Unknown
Sunlit
N/A
Visualization observer readout
Local Sidereal Time
12:01:36
Azimuth
Unknown
Elevation
Unknown
Doppler factor
Unknown
Orbital elements
Apogee altitude
471.996 km
Perigee altitude
468.687 km
Semi-major axis
6,848.478 km
Eccentricity
0.00024
Inclination
97.3894°
RAAN
335.4293°
Arg. of periapsis
41.8186°
True anomaly
318.30549°
Mean anomaly
318.3239°
Eccentric anomaly
318.31469°
Mean motion
3.82959 °/min
Orbital period
94 mins
BSTAR
0.00027241
Loading maneuver chart data...
Computing Atmospheric mass density...
Loading historical data...
Loading historical data...
Loading historical data...
Loading historical data...
Loading historical data...
Loading historical data...
Loading historical data...

Documentation

Showing up to 5 results
|